Location: Asheville, NC
(35.6000°N, 82.5500°W)
Time: 15:00:15
(UTC-05:00)

UWE-3 - Pass Details

Date: 12 January 2018
Orbit: 587 x 683 km, 97.6° (Epoch: 17 January)

Event Time Altitude Azimuth Distance (km) Brightness Sun altitude
Rises 06:51:02 0° 37° (NE) 3,042 ? -10.0°
Reaches altitude 10° 06:54:48 10° 69° (ENE) 2,126 ? -9.2°
Maximum altitude 06:56:34 12° 91° (E) 1,990 ? -8.9°
Drops below altitude 10° 06:58:20 10° 114° (ESE) 2,120 ? -8.6°
Sets 07:02:02 0° 145° (SE) 3,021 ? -7.9°
